STARLINK-32804, 62846

Orbit data source: Space-Track

STARLINK-32804, 62846 is a payload satellite owned by SpaceX/Seattle (US) in LEO that was launched on Mon, 27 Jan 2025 UTC via an FALCON 9 launch vehicle from the Air Force Eastern Test Range (AFETR). Payload-class satellites include a variety of spacecraft equipped with specific instruments for various scientific and technological missions. These include communications satellites like Starlink; space stations such as the ISS; scientific satellites like the Hubble; Earth observation satellites from companies like Planet Labs, Umbra, and HawkEye 360; GPS; miniature CubeSats for education and research; and military/defense satellites.

Loading next visibility...
Identifier
62846, 2025-019T
Orbit
LEO
Country
Flag of USUS
Related business
Manufacturer
SpaceX/Seattle
Mission
Operational Commercial Communications
Bus & Motor
STARLINK V2M, Unknown motor
Mass
730 kg wet, ~700 kg dry
Launch date (UTC)
2025-01-27 (9 months ago)
Launch vehicle
FALCON 9
Launch site
Air Force Eastern Test Range (AFETR)
Object type
Payload
Rocket body
Debris
Shape & HBR
Box + 2 Pan, 17.7 m
Radar Cross Section
33.884 m², Large (>1 m²)

Expand to show TLE details & history
Last TLE update: 19 hours ago

TLE from 19 hours ago
0 STARLINK-32804
1 62846U 25019T   25296.00623112  .00019195  00000-0  70485-3 0  9994
2 62846  42.9986 146.5772 0001387 272.7891  87.2802 15.27597841 41194
Epoch: 2025-10-23T00:08Z
TLE epoch observation values (Epoch: 2025-10-23T00:08:58.368Z)
Latitude
-0.00002°
Longitude
112.66229°
Altitude
482.726 km
Speed
7.626 km/s
True Right ascension
09h 46m 18s
True Declination
0° 00' 00"
Sunlit
Object was in daylight at epoch
Visualization orbit readout
Latitude
Unknown
Longitude
Unknown
Altitude
Unknown
Speed
Unknown
Apparent Right ascension
Unknown
Apparent Declination
Unknown
Sunlit
N/A
Visualization observer readout
Local Sidereal Time
14:13:59
Azimuth
Unknown
Elevation
Unknown
Doppler factor
Unknown
Orbital elements
Apogee altitude
485.893 km
Perigee altitude
483.989 km
Semi-major axis
6,863.078 km
Eccentricity
0.00014
Inclination
42.9986°
RAAN
146.5772°
Arg. of periapsis
272.7891°
True anomaly
87.29608°
Mean anomaly
87.2802°
Eccentric anomaly
87.28814°
Mean motion
3.81737 °/min
Orbital period
94.31 mins
BSTAR
0.00070485
Loading maneuver chart data...
Computing Atmospheric mass density...
Loading historical data...
Loading historical data...
Loading historical data...
Loading historical data...
Loading historical data...
Loading historical data...
Loading historical data...

Documentation

Showing up to 5 results
|